This demonstration page uses our WeatherBlox Daily Observations layout. Learn more.

Left ArrowRight Arrow

44.8408, -93.29828

Hourly Observations for August 5, 2017

Temp ( °F °C ) Dew Point ( °F °C ) Humidity (%) Winds ( mph kmh ) Pressure ( in mb ) Visibility ( mi km ) Precip ( " mm )
12:53 am 00:53 Partly Cloudy 63 17.2 52 11.1 68 68 Calm 29.99 1016 10 16 0.00 0.00
1:53 am 01:53 Partly Cloudy 64 17.8 53 11.7 68 68 SW 3 6 29.98 1015 10 16 0.00 0.00
2:53 am 02:53 Mostly Clear 61 16.1 53 11.7 75 75 SW 3 6 29.99 1016 10 16 0.00 0.00
3:53 am 03:53 Clear 61 16.1 53 11.7 75 75 SW 3 6 29.98 1015 10 16 0.00 0.00
4:53 am 04:53 Mostly Clear 60 15.6 52 11.1 75 75 Calm 29.98 1015 10 16 0.00 0.00
5:53 am 05:53 Mostly Clear 58 14.4 52 11.1 81 81 Calm 29.98 1015 10 16 0.00 0.00
6:53 am 06:53 Mostly Sunny 60 15.6 52 11.1 75 75 SW 5 7 29.98 1015 10 16 0.00 0.00
7:53 am 07:53 Mostly Cloudy 61 16.1 53 11.7 75 75 SW 3 6 29.99 1016 10 16 0.00 0.00
8:53 am 08:53 Partly Cloudy 65 18.3 53 11.7 66 66 WSW 5 7 30.00 1016 10 16 0.00 0.00
9:53 am 09:53 Mostly Cloudy 68 20 53 11.7 59 59 SW 3 6 30.00 1016 10 16 0.00 0.00
10:53 am 10:53 Mostly Cloudy 70 21.1 54 12.2 57 57 SW 6 9 30.00 1016 10 16 0.00 0.00
11:53 am 11:53 Mostly Cloudy 73 22.8 54 12.2 51 51 S 3 6 30.00 1016 10 16 0.00 0.00
12:53 pm 12:53 Partly Cloudy 77 25 53 11.7 43 43 VRB 6 9 29.99 1016 10 16 0.00 0.00
1:53 pm 13:53 Mostly Cloudy 76 24.4 51 10.6 42 42 W 7 11 29.98 1015 10 16 0.00 0.00
2:53 pm 14:53 Mostly Cloudy 76 24.4 51 10.6 42 42 WSW 10 17 29.98 1015 10 16 0.00 0.00
3:53 pm 15:53 Mostly Cloudy 73 22.8 54 12.2 51 51 SE 6 9 29.98 1015 10 16 0.01 0.25
4:53 pm 16:53 Mostly Cloudy 75 23.9 52 11.1 45 45 S 9 15 29.97 1015 10 16 0.00 0.00
5:46 pm 17:46 Cloudy with Nearby Thunderstorms 67 19.4 58 14.4 73 73 WNW 12 19 29.97 1015 6 10 0.18 4.57
5:53 pm 17:53 Cloudy with Nearby Thunderstorms 66 18.9 59 15 78 78 NNW 10 17 30.00 1016 5 8 0.24 6.10
6:04 pm 18:04 Cloudy with Light Rain 66 18.9 59 15 78 78 NNW 8 13 29.97 1015 5 8 0.03 0.76
6:53 pm 18:53 Cloudy 65 18.3 58 14.4 78 78 NE 8 13 30.00 1016 10 16 0.04 1.02
7:53 pm 19:53 Cloudy 67 19.4 58 14.4 73 73 Calm 29.98 1015 10 16 0.00 0.00
8:53 pm 20:53 Cloudy 68 20 59 15 73 73 NNW 7 11 29.98 1015 10 16 0.00 0.00
9:53 pm 21:53 Cloudy 65 18.3 59 15 81 81 Calm 29.99 1016 10 16 0.00 0.00
10:53 pm 22:53 Mostly Cloudy 66 18.9 57 13.9 73 73 Calm 29.98 1015 10 16 0.00 0.00
11:53 pm 23:53 Mostly Cloudy 64 17.8 58 14.4 81 81 E 3 6 29.98 1015 10 16 0.00 0.00

Powered by AerisWeather